Weather History for Bishkek, Kyrgyzstan

Change the Weather History Date:

Tuesday, November 20, 2012

  Actual Average Record
Temperature  
Mean Temperature 22 °F -  
Max Temperature 26 °F - - ()
Min Temperature 17 °F - - ()
Degree Days  
Heating Degree Days 44    
Moisture  
Dew Point 21 °F    
Average Humidity 92    
Maximum Humidity 100    
Minimum Humidity 80    
Precipitation  
Precipitation 0.43 in - - ()
Sea Level Pressure  
Sea Level Pressure 30.58 in    
Wind  
Wind Speed 4 mph ()    
Max Wind Speed 9 mph    
Max Gust Speed -    
Visibility 2.8 miles    
Events Fog , Snow    
T = Trace of Precipitation, MM = Missing Value Source: Averaged Metar Reports

Daily Weather History Graph

Daily Weather History Graph

Search for Another Location

Airport:

Trip Planner

Search our weather history database for the weather conditions in past years. The results will help you decide how hot, cold, wet, or windy it might be!

Date:

Astronomy

Nov. 20, 2012 Rise Set
Actual Time 8:00 AM KGT 5:34 PM KGT
Civil Twilight 7:29 AM KGT 6:05 PM KGT
Nautical Twilight 6:55 AM KGT 6:39 PM KGT
Astronomical Twilight 6:21 AM KGT 7:13 PM KGT
Moon 1:16 PM KGT (11/20) No Moon Set
Length of Visible Light 10h 35m
Length of Day
9h 33m
Waxing Crescent, 46% of the Moon is Illuminated
Nov 20
Waxing Crescent
Nov 20
First Quarter
Nov 28
Full
Dec 6
Last Quarter
Dec 13
New

Hourly Weather History & Observations

Time (KGT) Temp. Windchill Dew Point Humidity Pressure Visibility Wind Dir Wind Speed Gust Speed Precip Events Conditions
12:00 AM 26 °F - - % 30.61 in - Calm Calm - - Snow Light Snow
12:00 AM 26.6 °F - 24.8 °F 93% 30.48 in 1.3 mi Calm Calm - N/A Snow Light Snow
12:30 AM 26.6 °F - 26.6 °F 100% 30.48 in 1.3 mi South 2.2 mph - N/A Snow Light Snow
1:00 AM 26.6 °F - 24.8 °F 93% 30.48 in 0.9 mi SSW 2.2 mph - N/A Snow Light Snow
1:30 AM 26.6 °F - 24.8 °F 93% 30.48 in 1.2 mi WSW 2.2 mph - N/A Snow Light Snow
2:00 AM 26.6 °F - 24.8 °F 93% 30.48 in 1.2 mi WSW 2.2 mph - N/A Snow Light Snow
2:30 AM 26.6 °F - 24.8 °F 93% 30.48 in 1.9 mi WSW 2.2 mph - N/A Snow Light Snow
3:00 AM 26.6 °F 21.3 °F 24.8 °F 93% 30.48 in 1.8 mi West 4.5 mph - N/A Snow Light Snow
3:30 AM 26.6 °F 21.3 °F 24.8 °F 93% 30.48 in - West 4.5 mph - N/A Snow Light Snow
4:00 AM 26.6 °F 21.3 °F 24.8 °F 93% 30.48 in 1.6 mi West 4.5 mph - N/A Snow Light Snow
4:30 AM 26.6 °F 21.3 °F 24.8 °F 93% 30.48 in 3.7 mi West 4.5 mph - N/A Snow Light Snow
5:00 AM 24.8 °F 19.2 °F 23.0 °F 93% 30.51 in - West 4.5 mph - N/A Snow Light Snow
5:30 AM 24.8 °F - 23.0 °F 93% 30.51 in 2.8 mi West 2.2 mph - N/A Snow Light Snow
6:00 AM 25 °F - 25 °F 100% 30.67 in - NNE 2.2 mph - - Snow Snow
6:00 AM 24.8 °F - 23.0 °F 93% 30.51 in 3.1 mi West 2.2 mph - N/A Snow Light Snow
6:30 AM 24.8 °F 19.2 °F 23.0 °F 93% 30.51 in 1.5 mi West 4.5 mph - N/A Snow Light Snow
7:00 AM 23.0 °F 17.1 °F 23.0 °F 100% 30.51 in 1.3 mi West 4.5 mph - N/A Snow Light Snow
7:30 AM 23.0 °F 17.1 °F 21.2 °F 93% 30.54 in 6.2 mi West 4.5 mph - N/A Snow Light Snow
8:00 AM 23.0 °F 17.1 °F 21.2 °F 93% 30.54 in 6.2 mi West 4.5 mph - N/A Snow Light Snow
8:30 AM 23.0 °F 17.1 °F 21.2 °F 93% 30.54 in 6.2 mi West 4.5 mph - N/A Snow Light Snow
9:00 AM 23.0 °F 14.9 °F 21.2 °F 93% 30.54 in 6.2 mi West 6.7 mph - N/A Snow Light Snow
9:30 AM 23.0 °F 17.1 °F 23.0 °F 100% 30.57 in 1.6 mi West 4.5 mph - N/A Snow Light Snow
10:00 AM 24.8 °F 19.2 °F 23.0 °F 93% 30.57 in 1.6 mi West 4.5 mph - N/A Snow Light Snow
10:30 AM 24.8 °F 19.2 °F 23.0 °F 93% 30.57 in 1.9 mi West 4.5 mph - N/A Snow Light Snow
11:00 AM 26.6 °F 21.3 °F 24.8 °F 93% 30.57 in 1.9 mi West 4.5 mph - N/A Snow Light Snow
11:30 AM 26.6 °F 21.3 °F 24.8 °F 93% 30.57 in 3.1 mi West 4.5 mph - N/A Snow Light Snow
12:00 PM 25 °F - 23 °F 89% 30.73 in 2 mi NW 2.2 mph - - Snow Light Snow
12:00 PM 24.8 °F 17.1 °F 23.0 °F 93% 30.57 in 2.5 mi WNW 6.7 mph - N/A Snow Light Snow
12:30 PM 24.8 °F 17.1 °F 23.0 °F 93% 30.57 in 3.7 mi WNW 6.7 mph - N/A Snow Light Snow
1:00 PM 24.8 °F 17.1 °F 23.0 °F 93% 30.57 in 6.2 mi NW 6.7 mph - N/A   Overcast
1:30 PM 26.6 °F 19.2 °F 23.0 °F 86% 30.57 in 6.2 mi NW 6.7 mph - N/A Snow Light Snow
2:00 PM 26.6 °F 19.2 °F 23.0 °F 86% 30.57 in 5.0 mi WNW 6.7 mph - N/A Snow Light Snow
2:30 PM 26.6 °F 19.2 °F 21.2 °F 80% 30.57 in 6.2 mi WNW 6.7 mph - N/A Snow Light Snow
3:00 PM 24.8 °F 17.1 °F 21.2 °F 86% 30.60 in 6.2 mi WNW 6.7 mph - N/A Snow Light Snow
3:30 PM 24.8 °F 17.1 °F 21.2 °F 86% 30.60 in 6.2 mi West 6.7 mph - N/A   Mostly Cloudy
4:00 PM 23.0 °F 13.2 °F 19.4 °F 86% 30.60 in 6.2 mi West 8.9 mph - N/A   Mostly Cloudy
4:30 PM 23.0 °F 13.2 °F 17.6 °F 80% 30.63 in 6.2 mi West 8.9 mph - N/A   Mostly Cloudy
5:00 PM 21.2 °F 11.0 °F 17.6 °F 86% 30.63 in 6.2 mi West 8.9 mph - N/A   Mostly Cloudy
5:30 PM 19.4 °F 8.8 °F 15.8 °F 86% 30.63 in 5.0 mi West 8.9 mph - N/A   Mostly Cloudy
6:00 PM 21 °F - 19 °F 87% 30.82 in 2 mi West 2.2 mph - - Snow Light Snow
6:00 PM 17.6 °F 6.6 °F 14.0 °F 86% 30.66 in 3.7 mi West 8.9 mph - N/A   Mostly Cloudy
6:30 PM 17.6 °F 6.6 °F 15.8 °F 93% 30.66 in 0.2 mi WSW 8.9 mph - N/A Fog Light Freezing Fog
7:00 PM 17.6 °F 6.6 °F 15.8 °F 93% 30.66 in 0.2 mi West 8.9 mph - N/A Fog Light Freezing Fog
7:30 PM 17.6 °F 6.6 °F 15.8 °F 93% 30.66 in 0.2 mi West 8.9 mph - N/A Fog , Snow Light Snow
8:00 PM 17.6 °F 6.6 °F 15.8 °F 93% 30.66 in 0.2 mi West 8.9 mph - N/A Fog , Snow Light Snow
8:30 PM 17.6 °F 8.4 °F 15.8 °F 93% 30.66 in 0.2 mi West 6.7 mph - N/A Fog , Snow Light Snow
9:00 PM 17.6 °F 10.8 °F 15.8 °F 93% 30.66 in 0.2 mi West 4.5 mph - N/A Fog , Snow Light Snow
9:30 PM 17.6 °F - 15.8 °F 93% 30.66 in 0.2 mi Calm Calm - N/A Fog , Snow Light Snow
10:00 PM 17.6 °F - 15.8 °F 93% 30.69 in 0.2 mi Calm Calm - N/A Fog , Snow Light Snow
10:30 PM 17.6 °F 10.8 °F 15.8 °F 93% 30.66 in 0.5 mi WNW 4.5 mph - N/A Fog , Snow Light Snow
11:00 PM 17.6 °F - 15.8 °F 93% 30.69 in 0.6 mi Calm Calm - N/A Fog , Snow Light Snow
11:30 PM 17.6 °F - 15.8 °F 93% 30.66 in 0.7 mi Calm Calm - N/A Snow Light Snow